Погода в Тунгуде

Россия / Республика Карелия     64°13′31″N   34°18′16″E
темп.,
°C
ветер,
м/с
пор.,
м/с
влажн.,
%
обл.,
%
осадки,
мм/ч
давл.,
гПа
погр.,
м
24 июля, сб
сб2400:00+7зсз2665100 0.0 1009117
03:00+6з2673100 0.0 1010115
06:00+8зсз3965100 0.0 1010342
09:00+12зсз4748100 0.0 1010989
12:00+14сз5844100 0.0 10111988
15:00+15зсз4745100 0.0 10111627
18:00+15сз374698 0.0 10121601
21:00+14з2254100 0.0 101229
25 июля, вс
вс2500:00+12зюз255998 0.0 1013113
03:00+11зюз386397 0.0 1013193
06:00+13з3861100 0.0 1013316
09:00+13зсз2871100 0.1 1014433
12:00+12зюз288064 0.2 1015368
15:00+19сз4651100 0.3 10151758
18:00+18ссв33535 0.0 1016709
21:00+15ююв22685 0.0 101722
26 июля, пн
пн2600:00+12ююз388128 0.0 1017128
03:00+14юз4127049 0.0 1016369
06:00+15зсз397280 0.0 1017321
09:00+20сз365573 0.0 1017912
12:00+23сз4644100 0.0 10182057
15:00+24сз384599 0.1 10182113
18:00+18в357396 1.3 1019308
21:00+15всв367698 1.4 1020178
27 июля, вт
вт2700:00+11в2481100 0.0 102172
03:00+10юв118153 0.0 102211
06:00+13ююв12735 0.0 1021113
09:00+19ююв22565 0.0 1020555
12:00+24ю22455 0.0 10191152
15:00+26юз244282 0.0 10172040
18:00+23юв115897 0.1 101519
21:00+18ююз2583100 1.3 101496
28 июля, ср
ср2800:00+16ююз389186 0.4 1013145
03:00+14зюз269092 0.9 1011105
06:00+16юз378747 0.5 1010163
09:00+22сз23585 0.5 1009478
12:00+28з12395 0.0 10081346
15:00+23сз235451 0.0 100771
18:00+22в466169 0.0 1006260
21:00+20в2772100 0.0 1004200